Location: Culleoka
(33.1312°N, 96.4919°W)
Time: 22:04:44
(UTC+00:00)

Okean 1 - Pass Details

Date: 02 July 2022
Orbit: 532 x 553 km, 82.5° (Epoch: 07 August)

Event Time Altitude Azimuth Distance (km) Brightness Sun altitude
Rises 09:05:48 0° 12° (NNE) 2,687 7.9 -22.7°
Reaches altitude 10° 09:08:29 10° 31° (NNE) 1,789 7.0 -22.3°
Maximum altitude 09:11:17 19° 77° (ENE) 1,326 5.9 -22.0°
Drops below altitude 10° 09:14:03 10° 122° (ESE) 1,776 6.0 -21.6°
Enters shadow 09:16:08 - 138° (SE) 2,457 6.6 -21.3°
